| time (UTC) | temp F | wind direction | speed MPH | gust MPH | rain 1hr in | rain 24hr in | rain mn in | humidity % | barometer mb |
| 20260508080552 | 61 | 0 | 0.0 | 1.0 | 0.00 | 0.00 | 0.00 | 85 | 1013.1 |
| 20260508080053 | 61 | 0 | 0.0 | 1.0 | 0.00 | 0.00 | 0.00 | 84 | 1013.1 |
| 20260508075555 | 61 | 0 | 0.0 | 0.0 | 0.00 | 0.00 | 0.00 | 83 | 1013.5 |
| 20260508075052 | 61 | 0 | 0.0 | 0.0 | 0.00 | 0.00 | 0.00 | 82 | 1013.9 |
| 20260508074553 | 61 | 0 | 0.0 | 0.0 | 0.00 | 0.00 | 0.00 | 82 | 1014.0 |
| 20260508074055 | 62 | 0 | 0.0 | 0.0 | 0.00 | 0.00 | 0.00 | 80 | 1013.8 |
| 20260508073553 | 62 | 0 | 0.0 | 0.0 | 0.00 | 0.00 | 0.00 | 79 | 1013.8 |
| 20260508073052 | 62 | 0 | 0.0 | 2.0 | 0.00 | 0.00 | 0.00 | 77 | 1014.0 |
| 20260508072610 | 63 | 0 | 0.0 | 2.0 | 0.00 | 0.00 | 0.00 | 76 | 1014.2 |
| 20260508072055 | 62 | 0 | 0.0 | 2.0 | 0.00 | 0.00 | 0.00 | 76 | 1014.1 |
| 20260508071554 | 62 | 0 | 0.0 | 3.0 | 0.00 | 0.00 | 0.00 | 76 | 1014.2 |
| 20260508071055 | 62 | 0 | 0.0 | 3.0 | 0.00 | 0.00 | 0.00 | 76 | 1014.1 |
| 20260508070556 | 62 | 55 | 0.0 | 3.0 | 0.00 | 0.00 | 0.00 | 76 | 1014.1 |
| 20260508070055 | 62 | 0 | 0.0 | 4.0 | 0.00 | 0.00 | 0.00 | 76 | 1013.9 |
| 20260508065556 | 62 | 0 | 0.0 | 4.0 | 0.00 | 0.00 | 0.00 | 76 | 1014.1 |
| 20260508065054 | 62 | 0 | 0.0 | 2.0 | 0.00 | 0.00 | 0.00 | 76 | 1014.1 |
| 20260508064557 | 62 | 0 | 0.0 | 3.0 | 0.00 | 0.00 | 0.00 | 76 | 1014.2 |
| 20260508064054 | 62 | 0 | 0.0 | 3.0 | 0.00 | 0.00 | 0.00 | 76 | 1014.3 |
| 20260508063555 | 62 | 0 | 0.0 | 3.0 | 0.00 | 0.00 | 0.00 | 76 | 1014.2 |
| 20260508063056 | 62 | 0 | 0.0 | 4.0 | 0.00 | 0.00 | 0.00 | 76 | 1013.9 |
| 20260508062554 | 62 | 0 | 0.0 | 8.0 | 0.00 | 0.00 | 0.00 | 76 | 1013.5 |
| 20260508062056 | 63 | 0 | 2.0 | 8.0 | 0.00 | 0.00 | 0.00 | 76 | 1013.2 |
| 20260508061559 | 63 | 60 | 2.0 | 6.0 | 0.00 | 0.00 | 0.00 | 76 | 1012.9 |
| 20260508061055 | 63 | 80 | 1.0 | 5.0 | 0.00 | 0.00 | 0.00 | 76 | 1013.2 |
| 20260508060554 | 63 | 58 | 1.0 | 4.0 | 0.00 | 0.00 | 0.00 | 76 | 1013.6 |
| 20260508060056 | 63 | 47 | 1.0 | 4.0 | 0.00 | 0.00 | 0.00 | 76 | 1014.0 |
| 20260508055555 | 63 | 54 | 0.0 | 3.0 | 0.00 | 0.00 | 0.00 | 75 | 1014.2 |
| 20260508055055 | 63 | 54 | 1.0 | 3.0 | 0.00 | 0.00 | 0.00 | 75 | 1014.1 |
| 20260508054600 | 63 | 0 | 0.0 | 3.0 | 0.00 | 0.00 | 0.00 | 75 | 1014.5 |
| 20260508054054 | 63 | 0 | 0.0 | 2.0 | 0.00 | 0.00 | 0.00 | 75 | 1014.7 |
| 20260508053554 | 63 | 0 | 0.0 | 3.0 | 0.00 | 0.00 | 0.00 | 75 | 1014.6 |
| 20260508053058 | 63 | 57 | 0.0 | 3.0 | 0.00 | 0.00 | 0.00 | 75 | 1014.7 |
| 20260508052554 | 63 | 57 | 0.0 | 3.0 | 0.00 | 0.00 | 0.00 | 75 | 1015.0 |
| 20260508052056 | 63 | 57 | 1.0 | 3.0 | 0.00 | 0.00 | 0.00 | 75 | 1014.8 |
| 20260508051555 | 63 | 48 | 1.0 | 3.0 | 0.00 | 0.00 | 0.00 | 75 | 1014.2 |
| 20260508051054 | 63 | 25 | 0.0 | 3.0 | 0.00 | 0.00 | 0.00 | 76 | 1014.5 |
| 20260508050555 | 63 | 24 | 0.0 | 6.0 | 0.00 | 0.00 | 0.00 | 76 | 1014.7 |
| 20260508050057 | 63 | 22 | 0.0 | 6.0 | 0.00 | 0.00 | 0.00 | 76 | 1014.7 |
| 20260508045554 | 63 | 5 | 0.0 | 5.0 | 0.00 | 0.00 | 0.00 | 76 | 1015.2 |
| 20260508045054 | 62 | 16 | 0.0 | 4.0 | 0.00 | 0.00 | 0.00 | 76 | 1014.9 |
| 20260508044552 | 62 | 360 | 1.0 | 5.0 | 0.00 | 0.00 | 0.00 | 77 | 1015.1 |
| 20260508044056 | 62 | 5 | 2.0 | 5.0 | 0.00 | 0.00 | 0.00 | 77 | 1014.6 |
| 20260508043554 | 62 | 59 | 1.0 | 5.0 | 0.00 | 0.00 | 0.00 | 76 | 1013.2 |
| 20260508043101 | 62 | 101 | 2.0 | 5.0 | 0.00 | 0.00 | 0.00 | 76 | 1013.3 |
| 20260508042553 | 62 | 0 | 1.0 | 6.0 | 0.00 | 0.00 | 0.00 | 75 | 1013.5 |
| 20260508042057 | 62 | 70 | 1.0 | 7.0 | 0.00 | 0.00 | 0.00 | 75 | 1013.3 |
| 20260508041558 | 62 | 61 | 2.0 | 7.0 | 0.00 | 0.00 | 0.00 | 75 | 1012.9 |
| 20260508041053 | 63 | 77 | 1.0 | 5.0 | 0.00 | 0.00 | 0.00 | 75 | 1012.8 |
| 20260508040553 | 63 | 78 | 1.0 | 4.0 | 0.00 | 0.00 | 0.00 | 75 | 1013.1 |
| 20260508040052 | 63 | 86 | 1.0 | 4.0 | 0.00 | 0.00 | 0.00 | 75 | 1013.5 |
| 20260508035552 | 63 | 93 | 1.0 | 5.0 | 0.00 | 0.00 | 0.00 | 75 | 1013.5 |
| 20260508035052 | 63 | 52 | 1.0 | 5.0 | 0.00 | 0.00 | 0.00 | 74 | 1013.7 |
| 20260508034556 | 63 | 57 | 1.0 | 5.0 | 0.00 | 0.00 | 0.00 | 74 | 1013.9 |
| 20260508034053 | 63 | 61 | 0.0 | 3.0 | 0.00 | 0.00 | 0.00 | 74 | 1014.1 |
| 20260508033552 | 64 | 61 | 0.0 | 3.0 | 0.00 | 0.00 | 0.00 | 74 | 1014.1 |
| 20260508033051 | 64 | 52 | 0.0 | 3.0 | 0.00 | 0.00 | 0.00 | 74 | 1014.4 |
| 20260508032552 | 64 | 0 | 0.0 | 3.0 | 0.00 | 0.00 | 0.00 | 73 | 1014.4 |
| 20260508032052 | 64 | 36 | 1.0 | 3.0 | 0.00 | 0.00 | 0.00 | 72 | 1014.6 |
| 20260508031551 | 64 | 0 | 0.0 | 2.0 | 0.00 | 0.00 | 0.00 | 73 | 1014.7 |
| 20260508031052 | 64 | 0 | 0.0 | 2.0 | 0.00 | 0.00 | 0.00 | 73 | 1014.9 |
| 20260508030553 | 64 | 0 | 0.0 | 2.0 | 0.00 | 0.00 | 0.00 | 73 | 1015.0 |
| 20260508030058 | 64 | 55 | 0.0 | 3.0 | 0.00 | 0.00 | 0.00 | 72 | 1015.1 |
| 20260508025553 | 64 | 54 | 0.0 | 3.0 | 0.00 | 0.00 | 0.00 | 73 | 1015.1 |
| 20260508025052 | 64 | 59 | 0.0 | 1.0 | 0.00 | 0.00 | 0.00 | 72 | 1014.7 |
| 20260508024552 | 64 | 0 | 0.0 | 1.0 | 0.00 | 0.00 | 0.00 | 73 | 1014.6 |
| 20260508024052 | 64 | 0 | 0.0 | 1.0 | 0.00 | 0.00 | 0.00 | 73 | 1014.6 |
| 20260508023552 | 64 | 0 | 0.0 | 1.0 | 0.00 | 0.00 | 0.00 | 72 | 1014.5 |
| 20260508023053 | 64 | 0 | 0.0 | 1.0 | 0.00 | 0.00 | 0.00 | 72 | 1014.5 |
| 20260508022552 | 63 | 0 | 0.0 | 0.0 | 0.00 | 0.00 | 0.00 | 73 | 1014.4 |
| 20260508022052 | 63 | 0 | 0.0 | 0.0 | 0.00 | 0.00 | 0.00 | 73 | 1014.5 |
| 20260508021600 | 63 | 0 | 0.0 | 2.0 | 0.00 | 0.00 | 0.00 | 73 | 1014.4 |
| 20260508021052 | 63 | 0 | 0.0 | 5.0 | 0.00 | 0.00 | 0.00 | 73 | 1013.9 |
| 20260508020557 | 63 | 0 | 0.0 | 5.0 | 0.00 | 0.00 | 0.00 | 72 | 1013.8 |
| 20260508020057 | 64 | 59 | 0.0 | 3.0 | 0.00 | 0.00 | 0.00 | 72 | 1013.7 |
| 20260508015549 | 64 | 59 | 0.0 | 4.0 | 0.00 | 0.00 | 0.00 | 71 | 1013.8 |
| 20260508015053 | 64 | 0 | 1.0 | 4.0 | 0.00 | 0.00 | 0.00 | 71 | 1013.9 |
| 20260508014558 | 64 | 0 | 1.0 | 3.0 | 0.00 | 0.00 | 0.00 | 71 | 1013.5 |
| 20260508014055 | 64 | 0 | 0.0 | 2.0 | 0.00 | 0.00 | 0.00 | 71 | 1013.2 |
| 20260508013552 | 64 | 0 | 0.0 | 2.0 | 0.00 | 0.00 | 0.00 | 71 | 1013.1 |
| 20260508013102 | 64 | 53 | 0.0 | 3.0 | 0.00 | 0.00 | 0.00 | 70 | 1013.2 |
| 20260508012552 | 64 | 0 | 1.0 | 6.0 | 0.00 | 0.00 | 0.00 | 69 | 1013.3 |
| 20260508012052 | 65 | 46 | 1.0 | 6.0 | 0.00 | 0.00 | 0.00 | 69 | 1013.0 |
| 20260508011555 | 65 | 61 | 1.0 | 5.0 | 0.00 | 0.00 | 0.00 | 69 | 1013.1 |
| 20260508011125 | 65 | 35 | 1.0 | 7.0 | 0.00 | 0.00 | 0.00 | 68 | 1013.1 |
| 20260508010554 | 65 | 347 | 2.0 | 7.0 | 0.00 | 0.00 | 0.00 | 68 | 1013.2 |
| 20260508010056 | 65 | 78 | 3.0 | 8.0 | 0.00 | 0.00 | 0.00 | 67 | 1012.9 |
| 20260508005554 | 65 | 44 | 2.0 | 10.0 | 0.00 | 0.00 | 0.00 | 66 | 1012.3 |
| 20260508005052 | 65 | 109 | 2.0 | 12.0 | 0.00 | 0.00 | 0.00 | 66 | 1011.9 |
| 20260508004611 | 66 | 55 | 3.0 | 12.0 | 0.00 | 0.00 | 0.00 | 66 | 1011.5 |
| 20260508004053 | 66 | 78 | 4.0 | 10.0 | 0.00 | 0.00 | 0.00 | 67 | 1011.3 |
| 20260508003552 | 66 | 76 | 3.0 | 9.0 | 0.00 | 0.00 | 0.00 | 68 | 1011.1 |
| 20260508003100 | 66 | 41 | 2.0 | 9.0 | 0.00 | 0.00 | 0.00 | 68 | 1011.6 |
| 20260508002553 | 66 | 30 | 3.0 | 10.0 | 0.00 | 0.00 | 0.00 | 68 | 1011.9 |
| 20260508002052 | 66 | 62 | 3.0 | 10.0 | 0.00 | 0.00 | 0.00 | 68 | 1012.3 |
| 20260508001558 | 67 | 71 | 2.0 | 9.0 | 0.00 | 0.00 | 0.00 | 68 | 1012.6 |
| 20260508001052 | 67 | 49 | 2.0 | 8.0 | 0.00 | 0.00 | 0.00 | 68 | 1013.0 |
| 20260508000553 | 67 | 32 | 3.0 | 8.0 | 0.00 | 0.00 | 0.00 | 68 | 1013.2 |
| 20260508000100 | 67 | 78 | 2.0 | 8.0 | 0.00 | 0.00 | 0.00 | 69 | 1013.2 |
| 20260507235555 | 67 | 91 | 1.0 | 5.0 | 0.00 | 0.00 | 0.00 | 69 | 1013.4 |
| 20260507235054 | 67 | 59 | 1.0 | 7.0 | 0.00 | 0.00 | 0.00 | 68 | 1013.7 |
| 20260507234552 | 67 | 50 | 2.0 | 8.0 | 0.00 | 0.00 | 0.00 | 68 | 1014.0 |
| 20260507234054 | 67 | 88 | 2.0 | 10.0 | 0.00 | 0.00 | 0.00 | 67 | 1014.0 |
| 20260507233553 | 68 | 76 | 1.0 | 10.0 | 0.00 | 0.00 | 0.00 | 67 | 1014.1 |
| 20260507233052 | 67 | 58 | 1.0 | 9.0 | 0.00 | 0.00 | 0.00 | 67 | 1014.3 |
| 20260507232552 | 67 | 40 | 3.0 | 9.0 | 0.00 | 0.00 | 0.00 | 65 | 1014.2 |
| 20260507232052 | 68 | 62 | 2.0 | 8.0 | 0.00 | 0.00 | 0.00 | 65 | 1014.3 |
| 20260507231552 | 68 | 65 | 2.0 | 7.0 | 0.00 | 0.00 | 0.00 | 66 | 1014.4 |
| 20260507231053 | 68 | 5 | 2.0 | 8.0 | 0.00 | 0.00 | 0.00 | 67 | 1014.4 |
| 20260507230555 | 68 | 0 | 2.0 | 8.0 | 0.00 | 0.00 | 0.00 | 67 | 1014.5 |
| 20260507230055 | 68 | 72 | 2.0 | 6.0 | 0.00 | 0.00 | 0.00 | 66 | 1014.5 |
| 20260507225552 | 68 | 37 | 2.0 | 5.0 | 0.00 | 0.00 | 0.00 | 65 | 1014.5 |
| 20260507225052 | 68 | 59 | 2.0 | 5.0 | 0.00 | 0.00 | 0.00 | 65 | 1014.6 |
| 20260507224611 | 68 | 57 | 2.0 | 8.0 | 0.00 | 0.00 | 0.00 | 64 | 1014.6 |
| 20260507224052 | 69 | 71 | 2.0 | 8.0 | 0.00 | 0.00 | 0.00 | 65 | 1014.5 |
| 20260507223552 | 69 | 81 | 2.0 | 8.0 | 0.00 | 0.00 | 0.00 | 65 | 1014.7 |
| 20260507223059 | 68 | 87 | 2.0 | 7.0 | 0.00 | 0.00 | 0.00 | 65 | 1014.9 |
| 20260507222554 | 68 | 80 | 2.0 | 10.0 | 0.00 | 0.00 | 0.00 | 66 | 1015.0 |
| 20260507222053 | 68 | 67 | 2.0 | 10.0 | 0.00 | 0.00 | 0.00 | 67 | 1015.0 |
| 20260507221553 | 68 | 67 | 2.0 | 9.0 | 0.00 | 0.00 | 0.00 | 67 | 1014.4 |
| 20260507221055 | 67 | 55 | 2.0 | 9.0 | 0.00 | 0.00 | 0.00 | 67 | 1014.6 |
| 20260507220555 | 67 | 58 | 2.0 | 8.0 | 0.00 | 0.00 | 0.00 | 69 | 1014.5 |
| 20260507220054 | 67 | 53 | 1.0 | 8.0 | 0.00 | 0.00 | 0.00 | 69 | 1014.4 |
| 20260507215553 | 67 | 5 | 2.0 | 8.0 | 0.00 | 0.00 | 0.00 | 68 | 1015.0 |
| 20260507215053 | 67 | 17 | 1.0 | 9.0 | 0.00 | 0.00 | 0.00 | 69 | 1015.2 |
| 20260507214554 | 67 | 9 | 3.0 | 9.0 | 0.00 | 0.00 | 0.00 | 68 | 1015.2 |
| 20260507214052 | 67 | 52 | 3.0 | 11.0 | 0.00 | 0.00 | 0.00 | 67 | 1015.0 |
| 20260507213552 | 67 | 55 | 3.0 | 12.0 | 0.00 | 0.00 | 0.00 | 67 | 1014.9 |
| 20260507213054 | 67 | 59 | 3.0 | 12.0 | 0.00 | 0.00 | 0.00 | 66 | 1014.9 |
| 20260507212553 | 67 | 82 | 2.0 | 12.0 | 0.00 | 0.00 | 0.00 | 67 | 1015.1 |
| 20260507212053 | 67 | 5 | 2.0 | 13.0 | 0.00 | 0.00 | 0.00 | 68 | 1015.5 |
| 20260507211620 | 67 | 42 | 2.0 | 13.0 | 0.00 | 0.00 | 0.00 | 69 | 1015.5 |
| 20260507211053 | 67 | 22 | 4.0 | 10.0 | 0.00 | 0.00 | 0.00 | 67 | 1015.5 |
| 20260507210553 | 68 | 5 | 3.0 | 10.0 | 0.00 | 0.00 | 0.00 | 68 | 1015.5 |
| 20260507210056 | 68 | 355 | 4.0 | 10.0 | 0.00 | 0.00 | 0.00 | 68 | 1015.3 |
| 20260507205553 | 68 | 355 | 2.0 | 9.0 | 0.00 | 0.00 | 0.00 | 69 | 1015.2 |
| 20260507205052 | 68 | 59 | 3.0 | 10.0 | 0.00 | 0.00 | 0.00 | 69 | 1014.5 |
| 20260507204601 | 68 | 42 | 3.0 | 10.0 | 0.00 | 0.00 | 0.00 | 69 | 1014.9 |
| 20260507204052 | 69 | 11 | 3.0 | 10.0 | 0.00 | 0.00 | 0.00 | 69 | 1015.0 |
| 20260507203552 | 69 | 61 | 2.0 | 9.0 | 0.00 | 0.00 | 0.00 | 71 | 1015.1 |
| 20260507203054 | 69 | 91 | 1.0 | 12.0 | 0.00 | 0.00 | 0.00 | 72 | 1015.1 |
| 20260507202552 | 69 | 63 | 3.0 | 12.0 | 0.00 | 0.00 | 0.00 | 72 | 1015.0 |
| 20260507202052 | 69 | 21 | 2.0 | 7.0 | 0.00 | 0.00 | 0.00 | 73 | 1014.7 |
| 20260507201612 | 68 | 50 | 3.0 | 9.0 | 0.00 | 0.00 | 0.00 | 73 | 1014.8 |
| 20260507201055 | 67 | 5 | 3.0 | 10.0 | 0.00 | 0.00 | 0.00 | 74 | 1014.9 |
| 20260507200554 | 66 | 70 | 3.0 | 10.0 | 0.00 | 0.00 | 0.00 | 75 | 1015.1 |
| 20260507200104 | 66 | 55 | 3.0 | 10.0 | 0.00 | 0.00 | 0.00 | 75 | 1015.4 |
| 20260507195559 | 65 | 360 | 2.0 | 11.0 | 0.00 | 0.00 | 0.00 | 75 | 1015.4 |
| 20260507195054 | 65 | 83 | 2.0 | 11.0 | 0.00 | 0.00 | 0.00 | 77 | 1015.4 |
| 20260507194555 | 65 | 336 | 3.0 | 10.0 | 0.00 | 0.00 | 0.00 | 78 | 1015.0 |
| 20260507194101 | 65 | 349 | 2.0 | 12.0 | 0.00 | 0.00 | 0.00 | 79 | 1015.2 |
| 20260507193552 | 65 | 75 | 3.0 | 12.0 | 0.00 | 0.00 | 0.00 | 79 | 1015.6 |
| 20260507193055 | 65 | 34 | 2.0 | 8.0 | 0.00 | 0.00 | 0.00 | 81 | 1015.8 |
| 20260507192553 | 64 | 56 | 2.0 | 5.0 | 0.00 | 0.00 | 0.00 | 83 | 1015.6 |
| 20260507192052 | 64 | 14 | 1.0 | 10.0 | 0.00 | 0.00 | 0.00 | 83 | 1015.9 |
| 20260507191554 | 64 | 334 | 1.0 | 12.0 | 0.00 | 0.00 | 0.00 | 84 | 1015.6 |
| 20260507191055 | 63 | 56 | 1.0 | 12.0 | 0.00 | 0.00 | 0.00 | 84 | 1015.2 |
| 20260507190559 | 63 | 360 | 3.0 | 11.0 | 0.00 | 0.00 | 0.00 | 85 | 1015.1 |
| 20260507190106 | 63 | 52 | 3.0 | 12.0 | 0.00 | 0.00 | 0.00 | 85 | 1015.1 |
| 20260507185554 | 62 | 55 | 3.0 | 12.0 | 0.00 | 0.00 | 0.00 | 85 | 1015.0 |
| 20260507185057 | 62 | 69 | 4.0 | 11.0 | 0.00 | 0.00 | 0.00 | 86 | 1015.4 |
| 20260507184604 | 62 | 64 | 4.0 | 11.0 | 0.00 | 0.00 | 0.00 | 86 | 1015.5 |
| 20260507184055 | 62 | 60 | 1.0 | 9.0 | 0.00 | 0.00 | 0.00 | 88 | 1015.7 |
| 20260507183554 | 61 | 65 | 2.0 | 9.0 | 0.00 | 0.00 | 0.00 | 87 | 1015.9 |
| 20260507183101 | 61 | 53 | 1.0 | 7.0 | 0.00 | 0.00 | 0.00 | 87 | 1016.2 |
| 20260507182555 | 61 | 59 | 0.0 | 6.0 | 0.00 | 0.00 | 0.00 | 87 | 1016.4 |
| 20260507182055 | 61 | 90 | 1.0 | 6.0 | 0.00 | 0.00 | 0.00 | 85 | 1016.5 |
| 20260507181600 | 62 | 78 | 2.0 | 9.0 | 0.00 | 0.00 | 0.00 | 84 | 1016.7 |
| 20260507181055 | 62 | 13 | 2.0 | 9.0 | 0.00 | 0.00 | 0.00 | 81 | 1016.7 |
| 20260507180558 | 63 | 0 | 1.0 | 5.0 | 0.00 | 0.00 | 0.00 | 80 | 1016.5 |
| 20260507180054 | 63 | 61 | 1.0 | 5.0 | 0.00 | 0.00 | 0.00 | 80 | 1016.8 |
| 20260507175554 | 64 | 0 | 1.0 | 6.0 | 0.00 | 0.00 | 0.00 | 79 | 1016.8 |
| 20260507175054 | 64 | 0 | 2.0 | 8.0 | 0.00 | 0.00 | 0.00 | 79 | 1016.8 |
| 20260507174552 | 64 | 0 | 2.0 | 9.0 | 0.00 | 0.00 | 0.00 | 79 | 1016.6 |
| 20260507174054 | 64 | 5 | 2.0 | 9.0 | 0.00 | 0.00 | 0.00 | 79 | 1016.5 |
| 20260507173555 | 64 | 51 | 3.0 | 9.0 | 0.00 | 0.00 | 0.00 | 78 | 1016.5 |
| 20260507173101 | 64 | 24 | 3.0 | 10.0 | 0.00 | 0.00 | 0.00 | 79 | 1016.5 |
| 20260507172554 | 64 | 63 | 3.0 | 10.0 | 0.00 | 0.00 | 0.00 | 79 | 1016.5 |
| 20260507172054 | 64 | 58 | 2.0 | 10.0 | 0.00 | 0.00 | 0.00 | 79 | 1016.6 |
| 20260507171557 | 63 | 11 | 3.0 | 12.0 | 0.00 | 0.00 | 0.00 | 80 | 1016.6 |
| 20260507171054 | 63 | 42 | 3.0 | 12.0 | 0.00 | 0.00 | 0.00 | 81 | 1016.6 |
| 20260507170555 | 62 | 57 | 2.0 | 11.0 | 0.00 | 0.00 | 0.00 | 82 | 1016.7 |
| 20260507170056 | 62 | 11 | 4.0 | 11.0 | 0.00 | 0.00 | 0.00 | 82 | 1016.5 |
| 20260507165554 | 61 | 51 | 2.0 | 16.0 | 0.00 | 0.00 | 0.00 | 83 | 1016.8 |
| 20260507165057 | 61 | 57 | 2.0 | 16.0 | 0.00 | 0.00 | 0.00 | 84 | 1016.6 |
| 20260507164553 | 60 | 59 | 3.0 | 16.0 | 0.00 | 0.00 | 0.00 | 84 | 1016.6 |
| 20260507164055 | 60 | 42 | 3.0 | 12.0 | 0.00 | 0.00 | 0.00 | 84 | 1016.7 |
| 20260507163556 | 60 | 5 | 2.0 | 12.0 | 0.00 | 0.00 | 0.00 | 85 | 1016.8 |
| 20260507163053 | 60 | 51 | 3.0 | 11.0 | 0.00 | 0.00 | 0.00 | 85 | 1016.8 |
| 20260507162554 | 60 | 33 | 2.0 | 9.0 | 0.00 | 0.00 | 0.00 | 85 | 1016.8 |
| 20260507162053 | 60 | 49 | 3.0 | 9.0 | 0.00 | 0.00 | 0.00 | 85 | 1016.5 |
| 20260507161601 | 60 | 43 | 3.0 | 9.0 | 0.00 | 0.00 | 0.00 | 84 | 1016.7 |
| 20260507161054 | 60 | 346 | 2.0 | 9.0 | 0.00 | 0.00 | 0.00 | 85 | 1016.8 |
| 20260507160554 | 60 | 0 | 3.0 | 13.0 | 0.00 | 0.00 | 0.00 | 84 | 1016.7 |
| 20260507160053 | 60 | 71 | 4.0 | 13.0 | 0.00 | 0.00 | 0.00 | 85 | 1016.6 |
| 20260507155554 | 59 | 40 | 4.0 | 14.0 | 0.00 | 0.00 | 0.00 | 85 | 1016.4 |
| 20260507155054 | 59 | 65 | 4.0 | 14.0 | 0.00 | 0.00 | 0.00 | 85 | 1016.5 |
| 20260507154555 | 59 | 355 | 3.0 | 14.0 | 0.00 | 0.00 | 0.00 | 85 | 1016.5 |
| 20260507154054 | 59 | 69 | 4.0 | 14.0 | 0.00 | 0.00 | 0.00 | 85 | 1016.5 |
| 20260507153555 | 59 | 62 | 4.0 | 14.0 | 0.00 | 0.00 | 0.00 | 85 | 1016.4 |
| 20260507153059 | 59 | 55 | 3.0 | 13.0 | 0.00 | 0.00 | 0.00 | 85 | 1016.4 |
| 20260507152558 | 59 | 111 | 4.0 | 13.0 | 0.00 | 0.00 | 0.00 | 85 | 1016.4 |
| 20260507152055 | 59 | 52 | 4.0 | 16.0 | 0.00 | 0.00 | 0.00 | 86 | 1016.3 |
| 20260507151559 | 59 | 76 | 4.0 | 16.0 | 0.00 | 0.00 | 0.00 | 86 | 1016.2 |
| 20260507151054 | 59 | 39 | 4.0 | 16.0 | 0.00 | 0.00 | 0.00 | 86 | 1016.3 |
| 20260507150556 | 59 | 343 | 4.0 | 14.0 | 0.00 | 0.00 | 0.00 | 87 | 1016.3 |
| 20260507150058 | 59 | 319 | 4.0 | 14.0 | 0.00 | 0.00 | 0.00 | 87 | 1016.3 |
| 20260507145556 | 58 | 51 | 4.0 | 15.0 | 0.00 | 0.00 | 0.00 | 88 | 1016.2 |
| 20260507145053 | 58 | 94 | 3.0 | 15.0 | 0.00 | 0.00 | 0.00 | 88 | 1016.1 |
| 20260507144555 | 58 | 360 | 3.0 | 11.0 | 0.00 | 0.00 | 0.00 | 89 | 1016.1 |
| 20260507144054 | 58 | 54 | 4.0 | 11.0 | 0.00 | 0.00 | 0.00 | 89 | 1016.0 |
| 20260507143553 | 58 | 24 | 5.0 | 11.0 | 0.00 | 0.00 | 0.00 | 90 | 1015.9 |
| 20260507143105 | 58 | 34 | 3.0 | 11.0 | 0.00 | 0.00 | 0.00 | 90 | 1015.8 |
| 20260507142553 | 58 | 0 | 2.0 | 10.0 | 0.00 | 0.00 | 0.00 | 90 | 1016.1 |
| 20260507142053 | 58 | 26 | 3.0 | 12.0 | 0.00 | 0.00 | 0.00 | 90 | 1016.3 |
| 20260507141557 | 58 | 89 | 1.0 | 12.0 | 0.00 | 0.00 | 0.00 | 90 | 1016.6 |
| 20260507141053 | 58 | 9 | 4.0 | 12.0 | 0.00 | 0.00 | 0.00 | 90 | 1016.5 |
| 20260507140553 | 58 | 35 | 2.0 | 12.0 | 0.00 | 0.00 | 0.00 | 90 | 1016.6 |
| 20260507140109 | 58 | 54 | 3.0 | 17.0 | 0.00 | 0.00 | 0.00 | 90 | 1016.3 |
| 20260507135553 | 58 | 45 | 3.0 | 17.0 | 0.00 | 0.00 | 0.00 | 90 | 1016.3 |
| 20260507135056 | 58 | 9 | 4.0 | 15.0 | 0.00 | 0.00 | 0.00 | 90 | 1016.1 |
| 20260507134551 | 58 | 78 | 3.0 | 11.0 | 0.00 | 0.00 | 0.00 | 90 | 1016.3 |
| 20260507134053 | 59 | 109 | 3.0 | 10.0 | 0.00 | 0.00 | 0.00 | 89 | 1016.3 |
| 20260507133553 | 58 | 74 | 2.0 | 10.0 | 0.00 | 0.00 | 0.00 | 89 | 1016.1 |
| 20260507133054 | 58 | 22 | 2.0 | 10.0 | 0.00 | 0.00 | 0.00 | 89 | 1016.5 |
| 20260507132553 | 58 | 48 | 3.0 | 10.0 | 0.00 | 0.00 | 0.00 | 88 | 1016.7 |
| 20260507132053 | 58 | 17 | 3.0 | 9.0 | 0.00 | 0.00 | 0.00 | 88 | 1016.4 |
| 20260507131603 | 59 | 109 | 2.0 | 10.0 | 0.00 | 0.00 | 0.00 | 88 | 1016.3 |
| 20260507131054 | 59 | 84 | 2.0 | 12.0 | 0.00 | 0.00 | 0.00 | 87 | 1016.4 |
| 20260507130553 | 59 | 69 | 3.0 | 12.0 | 0.00 | 0.00 | 0.00 | 87 | 1016.1 |
| 20260507130055 | 59 | 45 | 3.0 | 12.0 | 0.00 | 0.00 | 0.00 | 87 | 1016.2 |
| 20260507125554 | 59 | 44 | 3.0 | 11.0 | 0.00 | 0.00 | 0.00 | 87 | 1016.2 |
| 20260507125053 | 59 | 9 | 3.0 | 11.0 | 0.00 | 0.00 | 0.00 | 86 | 1016.0 |
| 20260507124556 | 59 | 5 | 2.0 | 11.0 | 0.00 | 0.00 | 0.00 | 86 | 1016.3 |
| 20260507124052 | 59 | 360 | 3.0 | 11.0 | 0.00 | 0.00 | 0.00 | 86 | 1016.0 |
| 20260507123552 | 59 | 55 | 3.0 | 11.0 | 0.00 | 0.00 | 0.00 | 86 | 1016.2 |
| 20260507123057 | 59 | 360 | 1.0 | 11.0 | 0.00 | 0.00 | 0.00 | 86 | 1015.7 |
| 20260507122553 | 59 | 80 | 3.0 | 11.0 | 0.00 | 0.00 | 0.00 | 85 | 1015.5 |
| 20260507122053 | 59 | 74 | 2.0 | 12.0 | 0.00 | 0.00 | 0.00 | 85 | 1015.7 |
| 20260507121556 | 60 | 40 | 3.0 | 12.0 | 0.00 | 0.00 | 0.00 | 85 | 1015.4 |
| 20260507121054 | 60 | 30 | 3.0 | 14.0 | 0.00 | 0.00 | 0.00 | 85 | 1015.4 |
| 20260507120552 | 60 | 5 | 3.0 | 14.0 | 0.00 | 0.00 | 0.00 | 85 | 1015.3 |
| 20260507120059 | 60 | 21 | 3.0 | 14.0 | 0.00 | 0.00 | 0.00 | 85 | 1015.3 |
| 20260507115552 | 60 | 43 | 3.0 | 13.0 | 0.00 | 0.00 | 0.00 | 84 | 1015.0 |
| 20260507115052 | 60 | 74 | 2.0 | 13.0 | 0.00 | 0.00 | 0.00 | 84 | 1015.0 |
| 20260507114553 | 60 | 360 | 2.0 | 12.0 | 0.00 | 0.00 | 0.00 | 84 | 1014.9 |
| 20260507114053 | 60 | 5 | 3.0 | 12.0 | 0.00 | 0.00 | 0.00 | 84 | 1015.0 |
| 20260507113551 | 60 | 160 | 1.0 | 12.0 | 0.00 | 0.00 | 0.00 | 84 | 1014.8 |
| 20260507113053 | 60 | 5 | 2.0 | 14.0 | 0.00 | 0.00 | 0.00 | 84 | 1014.7 |
| 20260507112555 | 60 | 351 | 4.0 | 14.0 | 0.00 | 0.00 | 0.00 | 84 | 1014.5 |
| 20260507112052 | 60 | 23 | 4.0 | 11.0 | 0.00 | 0.00 | 0.00 | 84 | 1014.4 |
| 20260507111551 | 60 | 350 | 3.0 | 10.0 | 0.00 | 0.00 | 0.00 | 83 | 1014.4 |
| 20260507111052 | 61 | 5 | 2.0 | 10.0 | 0.00 | 0.00 | 0.00 | 83 | 1014.3 |
| 20260507110552 | 61 | 81 | 1.0 | 10.0 | 0.00 | 0.00 | 0.00 | 83 | 1014.3 |
| 20260507110058 | 61 | 25 | 3.0 | 9.0 | 0.00 | 0.00 | 0.00 | 83 | 1014.4 |
| 20260507105553 | 61 | 63 | 2.0 | 9.0 | 0.00 | 0.00 | 0.00 | 83 | 1014.3 |
| 20260507105056 | 61 | 34 | 3.0 | 11.0 | 0.00 | 0.00 | 0.00 | 83 | 1014.3 |
| 20260507104555 | 61 | 331 | 2.0 | 11.0 | 0.00 | 0.00 | 0.00 | 83 | 1014.2 |
| 20260507104052 | 61 | 18 | 1.0 | 8.0 | 0.00 | 0.00 | 0.00 | 83 | 1014.4 |
| 20260507103554 | 61 | 34 | 2.0 | 10.0 | 0.00 | 0.00 | 0.00 | 83 | 1014.4 |
| 20260507103055 | 61 | 26 | 2.0 | 10.0 | 0.00 | 0.00 | 0.00 | 83 | 1014.5 |
| 20260507102554 | 61 | 12 | 1.0 | 9.0 | 0.00 | 0.00 | 0.00 | 84 | 1014.5 |
| 20260507102054 | 61 | 67 | 3.0 | 8.0 | 0.00 | 0.00 | 0.00 | 84 | 1014.4 |
| 20260507101605 | 61 | 360 | 2.0 | 8.0 | 0.00 | 0.00 | 0.00 | 84 | 1014.3 |
| 20260507101052 | 61 | 0 | 1.0 | 10.0 | 0.00 | 0.00 | 0.00 | 84 | 1014.2 |
| 20260507100555 | 61 | 49 | 3.0 | 10.0 | 0.00 | 0.00 | 0.00 | 83 | 1014.2 |
| 20260507100053 | 61 | 30 | 1.0 | 9.0 | 0.00 | 0.00 | 0.00 | 83 | 1014.3 |
| 20260507095553 | 61 | 74 | 2.0 | 9.0 | 0.00 | 0.00 | 0.00 | 83 | 1014.0 |
| 20260507095053 | 61 | 47 | 2.0 | 8.0 | 0.00 | 0.00 | 0.00 | 83 | 1014.3 |
| 20260507094600 | 61 | 350 | 1.0 | 6.0 | 0.00 | 0.00 | 0.00 | 83 | 1014.4 |
| 20260507094057 | 61 | 59 | 1.0 | 8.0 | 0.00 | 0.00 | 0.00 | 83 | 1014.3 |
| 20260507093552 | 61 | 18 | 2.0 | 8.0 | 0.00 | 0.00 | 0.00 | 83 | 1014.1 |
| 20260507093053 | 61 | 43 | 1.0 | 8.0 | 0.00 | 0.00 | 0.00 | 83 | 1014.1 |
| 20260507092553 | 61 | 73 | 2.0 | 9.0 | 0.00 | 0.00 | 0.00 | 83 | 1014.1 |
| 20260507092054 | 61 | 0 | 2.0 | 11.0 | 0.00 | 0.00 | 0.00 | 83 | 1014.2 |
| 20260507091601 | 61 | 42 | 3.0 | 11.0 | 0.00 | 0.00 | 0.00 | 83 | 1014.2 |
| 20260507091053 | 61 | 346 | 2.0 | 8.0 | 0.00 | 0.00 | 0.00 | 83 | 1014.1 |
| 20260507090552 | 61 | 346 | 2.0 | 9.0 | 0.00 | 0.00 | 0.00 | 83 | 1014.1 |
| 20260507090110 | 61 | 348 | 3.0 | 10.0 | 0.00 | 0.00 | 0.00 | 83 | 1014.1 |
| 20260507085557 | 61 | 0 | 2.0 | 10.0 | 0.00 | 0.00 | 0.00 | 83 | 1014.3 |
| 20260507085054 | 61 | 34 | 2.0 | 10.0 | 0.00 | 0.00 | 0.00 | 83 | 1014.2 |
| 20260507084550 | 61 | 0 | 3.0 | 10.0 | 0.00 | 0.00 | 0.00 | 83 | 1014.3 |
| 20260507084052 | 61 | 28 | 2.0 | 8.0 | 0.00 | 0.00 | 0.00 | 84 | 1014.3 |
| 20260507083552 | 61 | 44 | 1.0 | 8.0 | 0.00 | 0.00 | 0.00 | 84 | 1014.0 |
| 20260507083059 | 61 | 47 | 2.0 | 8.0 | 0.00 | 0.00 | 0.00 | 84 | 1014.1 |
| 20260507082552 | 61 | 338 | 2.0 | 7.0 | 0.00 | 0.00 | 0.00 | 84 | 1014.3 |
| 20260507082052 | 62 | 0 | 2.0 | 7.0 | 0.00 | 0.00 | 0.00 | 84 | 1014.4 |
| 20260507081558 | 62 | 38 | 1.0 | 7.0 | 0.00 | 0.00 | 0.00 | 84 | 1014.4 |
| 20260507081052 | 62 | 0 | 1.0 | 7.0 | 0.00 | 0.00 | 0.00 | 84 | 1014.3 |